Location: Alma
(38.7220°N, 88.9090°W)
Time: 21:35:10
(UTC-06:00)

Vanguard 2 - Pass Details

Date: 13 November 2019
Orbit: 553 x 2938 km, 32.9° (Epoch: 12 December)

Event Time Altitude Azimuth Distance (km) Brightness Sun altitude
Rises 13:10:02 0° 264° (W) 3,085 11.0 29.4°
Reaches altitude 10° 13:12:46 10° 255° (WSW) 1,986 10.3 29.2°
Maximum altitude 13:16:39 34° 189° (S) 933 10.0 28.9°
Drops below altitude 10° 13:20:16 10° 123° (ESE) 1,832 9.6 28.6°
Sets 13:22:41 0° 114° (ESE) 2,803 10.4 28.3°
